Weather History for Cheraw, SC

Change the Weather History Date:

Friday, August 22, 2014

  Actual Average (KFLO) Record (KFLO)
Temperature  
Mean Temperature 82 °F 80 °F  
Max Temperature 95 °F 89 °F 102 °F (2007)
Min Temperature 69 °F 70 °F 60 °F (1953)
Degree Days  
Heating Degree Days 0 0  
Month to date heating degree days 0  
Since 1 June heating degree days 1  
Since 1 July heating degree days 0  
Cooling Degree Days 17 15  
Month to date cooling degree days 340  
Year to date cooling degree days 1546  
Since 1 June cooling degree days 1239  
Growing Degree Days 32 (Base 50)    
Moisture  
Dew Point 70 °F    
Average Humidity 72    
Maximum Humidity 100    
Minimum Humidity 38    
Precipitation  
Precipitation 0.00 in 0.17 in 1.25 in (1951)
Month to date precipitation 3.79  
Year to date precipitation 29.03  
Sea Level Pressure  
Sea Level Pressure 30.00 in    
Wind  
Wind Speed 0 mph (North)    
Max Wind Speed 0 mph    
Max Gust Speed -    
Visibility 10 miles    
Events      
T = Trace of Precipitation, MM = Missing Value Source: NWS Daily Summary

Daily Weather History Graph

Daily Weather History Graph

Search for Another Location

Airport:

Trip Planner

Search our weather history database for the weather conditions in past years. The results will help you decide how hot, cold, wet, or windy it might be!

Date:

Astronomy

Aug. 22, 2014 Rise Set
Actual Time 6:45 AM EDT 7:59 PM EDT
Civil Twilight 6:19 AM EDT 8:25 PM EDT
Nautical Twilight 5:47 AM EDT 8:56 PM EDT
Astronomical Twilight 5:15 AM EDT 9:29 PM EDT
Moon 4:09 AM EDT (8/22) 6:04 PM EDT (8/22)
Length of Visible Light 14h 06m
Length of Day
13h 13m
Waning Crescent, 8% of the Moon is Illuminated
Aug 22
Waning Crescent
Aug 25
New
Sep 2
First Quarter
Sep 8
Full
Sep 15
Last Quarter

Hourly Weather History & Observations

Time (EDT) Temp. Heat Index Dew Point Humidity Pressure Visibility Wind Dir Wind Speed Gust Speed Precip Events Conditions
12:15 AM 73.4 °F - 71.6 °F 94% 30.05 in 10.0 mi Calm Calm - N/A   Clear
12:35 AM 73.4 °F - 71.6 °F 94% 30.05 in 10.0 mi Calm Calm - N/A   Clear
12:55 AM 73.4 °F - 71.6 °F 94% 30.04 in 10.0 mi Calm Calm - N/A   Clear
1:15 AM 73.4 °F - 71.6 °F 94% 30.05 in 10.0 mi Calm Calm - N/A   Clear
1:35 AM 73.4 °F - 71.6 °F 94% 30.05 in 10.0 mi Calm Calm - N/A   Clear
1:55 AM 73.4 °F - 71.6 °F 94% 30.04 in 10.0 mi Calm Calm - N/A   Clear
2:15 AM 73.4 °F - 71.6 °F 94% 30.04 in 10.0 mi Calm Calm - N/A   Clear
2:35 AM 73.4 °F - 71.6 °F 94% 30.03 in 10.0 mi Calm Calm - N/A   Clear
2:55 AM 71.6 °F - 71.6 °F 100% 30.03 in 9.0 mi Calm Calm - N/A   Clear
3:15 AM 71.6 °F - 71.6 °F 100% 30.03 in 10.0 mi Calm Calm - N/A   Clear
3:35 AM 71.6 °F - 71.6 °F 100% 30.02 in 10.0 mi Calm Calm - N/A   Clear
3:55 AM 73.4 °F - 71.6 °F 94% 30.01 in 10.0 mi Calm Calm - N/A   Clear
4:15 AM 71.6 °F - 69.8 °F 94% 30.00 in 10.0 mi Calm Calm - N/A   Clear
4:35 AM 71.6 °F - 69.8 °F 94% 30.00 in 10.0 mi Calm Calm - N/A   Clear
4:55 AM 71.6 °F - 68.0 °F 88% 30.00 in 10.0 mi Calm Calm - N/A   Clear
5:15 AM 71.6 °F - 68.0 °F 88% 30.00 in 10.0 mi Calm Calm - N/A   Partly Cloudy
5:35 AM 71.6 °F - 68.0 °F 88% 30.00 in 10.0 mi Calm Calm - N/A   Clear
5:55 AM 69.8 °F - 68.0 °F 94% 30.01 in 8.0 mi Calm Calm - N/A   Clear
6:15 AM 71.6 °F - 69.8 °F 94% 30.01 in 10.0 mi Calm Calm - N/A   Clear
6:35 AM 71.6 °F - 69.8 °F 94% 30.01 in 10.0 mi Calm Calm - N/A   Clear
6:55 AM 71.6 °F - 69.8 °F 94% 30.02 in 9.0 mi Calm Calm - N/A   Clear
7:15 AM 71.6 °F - 69.8 °F 94% 30.03 in 8.0 mi Calm Calm - N/A   Clear
7:35 AM 71.6 °F - 71.6 °F 100% 30.03 in 10.0 mi Calm Calm - N/A   Clear
8:15 AM 75.2 °F - 71.6 °F 89% 30.04 in 10.0 mi Calm Calm - N/A   Partly Cloudy
8:35 AM 75.2 °F - 71.6 °F 89% 30.04 in 10.0 mi Calm Calm - N/A   Clear
8:55 AM 77.0 °F - 71.6 °F 83% 30.04 in 10.0 mi Calm Calm - N/A   Clear
9:15 AM 78.8 °F - 71.6 °F 78% 30.04 in 10.0 mi Calm Calm - N/A   Clear
9:35 AM 80.6 °F 84.6 °F 71.6 °F 74% 30.04 in 10.0 mi Calm Calm - N/A   Clear
9:55 AM 82.4 °F 87.2 °F 71.6 °F 70% 30.04 in 10.0 mi Calm Calm - N/A   Clear
10:15 AM 84.2 °F 90.9 °F 73.4 °F 70% 30.04 in 10.0 mi Calm Calm - N/A   Clear
10:35 AM 86.0 °F 91.8 °F 71.6 °F 62% 30.04 in 10.0 mi Calm Calm - N/A   Clear
10:55 AM 86.0 °F 91.8 °F 71.6 °F 62% 30.04 in 10.0 mi Calm Calm - N/A   Clear
11:15 AM 87.8 °F 92.6 °F 69.8 °F 55% 30.03 in 10.0 mi Calm Calm - N/A   Clear
11:35 AM 89.6 °F 96.2 °F 71.6 °F 55% 30.03 in 10.0 mi Calm Calm - N/A   Clear
11:55 AM 89.6 °F 96.2 °F 71.6 °F 55% 30.02 in 10.0 mi Calm Calm - N/A   Clear
12:15 PM 89.6 °F 94.7 °F 69.8 °F 52% 30.02 in 10.0 mi Calm Calm - N/A   Clear
12:35 PM 91.4 °F 95.4 °F 68.0 °F 46% 30.02 in 10.0 mi Calm Calm - N/A   Clear
12:55 PM 91.4 °F 96.8 °F 69.8 °F 49% 30.01 in 10.0 mi Calm Calm - N/A   Clear
1:15 PM 93.2 °F 98.8 °F 69.8 °F 46% 30.01 in 10.0 mi Calm Calm - N/A   Clear
1:35 PM 93.2 °F 97.7 °F 68.0 °F 44% 30.01 in 10.0 mi Calm Calm - N/A   Clear
1:55 PM 93.2 °F 97.7 °F 68.0 °F 44% 30.00 in 10.0 mi Calm Calm - N/A   Partly Cloudy
2:15 PM 93.2 °F 97.7 °F 68.0 °F 44% 29.99 in 10.0 mi Calm Calm - N/A   Scattered Clouds
2:35 PM 93.2 °F 97.7 °F 68.0 °F 44% 29.99 in 10.0 mi Calm Calm - N/A   Mostly Cloudy
2:55 PM 95.0 °F 99.5 °F 68.0 °F 41% 29.98 in 10.0 mi Calm Calm - N/A   Mostly Cloudy
3:15 PM 91.4 °F 95.4 °F 68.0 °F 46% 29.97 in 10.0 mi Calm Calm - N/A   Partly Cloudy
3:35 PM 93.2 °F 96.2 °F 66.2 °F 41% 29.96 in 10.0 mi Calm Calm - N/A   Clear
3:55 PM 91.4 °F 95.4 °F 68.0 °F 46% 29.95 in 10.0 mi Calm Calm - N/A   Scattered Clouds
4:15 PM 95.0 °F 99.5 °F 68.0 °F 41% 29.95 in 10.0 mi Calm Calm - N/A   Mostly Cloudy
4:35 PM 95.0 °F 98.5 °F 66.2 °F 39% 29.95 in 10.0 mi Calm Calm - N/A   Scattered Clouds
5:15 PM 93.2 °F 94.9 °F 64.4 °F 38% 29.94 in 10.0 mi Calm Calm - N/A   Partly Cloudy
5:35 PM 93.2 °F 97.7 °F 68.0 °F 44% 29.94 in 10.0 mi Calm Calm - N/A   Clear
5:55 PM 93.2 °F 97.7 °F 68.0 °F 44% 29.94 in 10.0 mi Calm Calm - N/A   Clear
6:15 PM 93.2 °F 97.7 °F 68.0 °F 44% 29.94 in 10.0 mi Calm Calm - N/A   Clear
6:55 PM 91.4 °F 95.4 °F 68.0 °F 46% 29.94 in 10.0 mi Calm Calm - N/A   Clear
7:15 PM 89.6 °F 94.7 °F 69.8 °F 52% 29.94 in 10.0 mi Calm Calm - N/A   Clear
7:35 PM 86.0 °F 91.8 °F 71.6 °F 62% 29.94 in 10.0 mi Calm Calm - N/A   Clear
7:55 PM 84.2 °F 89.6 °F 71.6 °F 66% 29.94 in 10.0 mi Calm Calm - N/A   Clear
8:15 PM 84.2 °F 88.4 °F 69.8 °F 62% 29.95 in 10.0 mi Calm Calm - N/A   Clear
8:35 PM 80.6 °F 84.6 °F 71.6 °F 74% 29.94 in 10.0 mi Calm Calm - N/A   Clear
8:55 PM 80.6 °F 83.9 °F 69.8 °F 70% 29.94 in 10.0 mi Calm Calm - N/A   Clear
9:15 PM 80.6 °F 84.6 °F 71.6 °F 74% 29.94 in 10.0 mi Calm Calm - N/A   Clear
9:35 PM 80.6 °F 84.6 °F 71.6 °F 74% 29.95 in 10.0 mi Calm Calm - N/A   Clear
9:55 PM 78.8 °F - 71.6 °F 78% 29.95 in 10.0 mi Calm Calm - N/A   Clear
10:15 PM 78.8 °F - 71.6 °F 78% 29.95 in 10.0 mi Calm Calm - N/A   Clear
10:35 PM 77.0 °F - 71.6 °F 83% 29.95 in 10.0 mi Calm Calm - N/A   Clear
10:55 PM 77.0 °F - 73.4 °F 89% 29.95 in 10.0 mi Calm Calm - N/A   Clear
11:15 PM 75.2 °F - 73.4 °F 94% 29.95 in 10.0 mi Calm Calm - N/A   Clear
11:35 PM 77.0 °F - 73.4 °F 89% 29.96 in 10.0 mi Calm Calm - N/A   Clear
11:55 PM 75.2 °F - 73.4 °F 94% 29.95 in 10.0 mi Calm Calm - N/A   Clear